Istanbul, Turkey

1:52 AM EEST on August 29, 2016 (GMT +0300)
Ataturk

Weather History for LTBA - January, 2013

Change the Weather History Date:

Saturday, January 5, 2013

  Actual Average Record
Temperature  
Mean Temperature 44 °F -  
Max Temperature 48 °F 46 °F 59 °F (1997)
Min Temperature 39 °F 37 °F 24 °F (2008)
Degree Days  
Heating Degree Days 22    
Moisture  
Dew Point 36 °F    
Average Humidity 72    
Maximum Humidity 87    
Minimum Humidity 52    
Precipitation  
Precipitation 0.00 in - - ()
Sea Level Pressure  
Sea Level Pressure 29.91 in    
Wind  
Wind Speed 4 mph ()    
Max Wind Speed 8 mph    
Max Gust Speed -    
Visibility 6.2 miles    
Events Rain    
Averages and records for this station are not official NWS values.
T = Trace of Precipitation, MM = Missing Value Source: Averaged Metar Reports

Daily Weather History Graph

Daily Weather History Graph

Search for Another Location

Airport or City:

Trip Planner

Search our weather history database for the weather conditions in past years. The results will help you decide how hot, cold, wet, or windy it might be!

Date:

Astronomy

Jan. 05, 2013 Rise Set
Actual Time 7:29 AM EET 4:50 PM EET
Civil Twilight 6:58 AM EET 5:21 PM EET
Nautical Twilight 6:24 AM EET 5:56 PM EET
Astronomical Twilight 5:51 AM EET 6:29 PM EET
Moon 12:12 AM EET (1/5) 11:30 AM EET (1/5)
Length of Visible Light 10h 22m
Length of Day
9h 21m
Waning Gibbous, 47% of the Moon is Illuminated
Jan 5
Waning Gibbous
Jan 11
New
Jan 19
First Quarter
Jan 27
Full
Feb 3
Last Quarter

Hourly Weather History & Observations

Time (EET) Temp. Windchill Dew Point Humidity Pressure Visibility Wind Dir Wind Speed Gust Speed Precip Events Conditions
12:20 AM 44.6 °F 43.1 °F 39.2 °F 81% 30.04 in 6.2 mi NW 3.5 mph - N/A Rain Light Rain
12:50 AM 44.6 °F 42.2 °F 39.2 °F 81% 30.01 in 6.2 mi NNW 4.6 mph - N/A   Mostly Cloudy
1:20 AM 44.6 °F 42.2 °F 39.2 °F 81% 30.01 in 6.2 mi North 4.6 mph - N/A Rain Light Rain
1:50 AM 44.6 °F 40.7 °F 39.2 °F 81% 30.01 in 6.2 mi NNW 6.9 mph - N/A Rain Light Rain
2:00 AM 45 °F - 39 °F 72% 30.01 in 6 mi NNW 6.9 mph - - Rain Light Rain
2:20 AM 44.6 °F 40.2 °F 39.2 °F 81% 30.01 in 6.2 mi North 8.1 mph - N/A Rain Light Rain
2:50 AM 44.6 °F 40.7 °F 37.4 °F 76% 30.01 in 6.2 mi NNW 6.9 mph - N/A   Mostly Cloudy
3:20 AM 44.6 °F 42.2 °F 39.2 °F 81% 29.98 in 6.2 mi North 4.6 mph - N/A   Mostly Cloudy
3:50 AM 42.8 °F - 39.2 °F 87% 29.98 in 6.2 mi NNW 2.3 mph - N/A   Mostly Cloudy
4:20 AM 42.8 °F - 37.4 °F 81% 29.98 in 6.2 mi Calm Calm - N/A   Mostly Cloudy
4:50 AM 42.8 °F - 37.4 °F 81% 29.98 in 6.2 mi South 1.2 mph - N/A   Mostly Cloudy
5:20 AM 44.6 °F - 37.4 °F 76% 29.98 in 6.2 mi Variable 2.3 mph - N/A   Mostly Cloudy
5:50 AM 42.8 °F - 37.4 °F 81% 29.98 in 6.2 mi WNW 1.2 mph - N/A   Mostly Cloudy
6:20 AM 42.8 °F 41.1 °F 39.2 °F 87% 29.98 in 6.2 mi WNW 3.5 mph - N/A   Mostly Cloudy
6:50 AM 41.0 °F 39.0 °F 35.6 °F 81% 29.98 in 6.2 mi WNW 3.5 mph - N/A   Mostly Cloudy
7:20 AM 41.0 °F - 33.8 °F 76% 29.98 in 6.2 mi NW 2.3 mph - N/A   Scattered Clouds
7:50 AM 41.0 °F - 35.6 °F 81% 29.98 in 6.2 mi Calm Calm - N/A   Scattered Clouds
8:00 AM 41 °F - 36 °F 76% 29.99 in 6 mi Calm Calm - -   Partly Cloudy
8:20 AM 42.8 °F - 35.6 °F 76% 29.98 in 6.2 mi Variable 2.3 mph - N/A   Scattered Clouds
8:50 AM 44.6 °F - 35.6 °F 71% 29.95 in 6.2 mi Variable 2.3 mph - N/A   Scattered Clouds
9:20 AM 44.6 °F - 35.6 °F 71% 29.95 in 6.2 mi WNW 2.3 mph - N/A   Scattered Clouds
9:50 AM 44.6 °F - 37.4 °F 76% 29.95 in 6.2 mi Variable 2.3 mph - N/A   Scattered Clouds
10:20 AM 46.4 °F - 35.6 °F 66% 29.95 in 6.2 mi Variable 1.2 mph - N/A   Scattered Clouds
10:50 AM 46.4 °F 45.2 °F 33.8 °F 62% 29.95 in 6.2 mi WSW 3.5 mph - N/A   Scattered Clouds
11:20 AM 46.4 °F 44.3 °F 33.8 °F 62% 29.95 in 6.2 mi SW 4.6 mph - N/A   Mostly Cloudy
11:50 AM 48.2 °F - 35.6 °F 62% 29.92 in 6.2 mi SSW 5.8 mph - N/A   Mostly Cloudy
12:20 PM 48.2 °F - 35.6 °F 62% 29.92 in 6.2 mi SW 5.8 mph - N/A   Mostly Cloudy
12:50 PM 48.2 °F - 35.6 °F 62% 29.89 in 6.2 mi WSW 6.9 mph - N/A   Mostly Cloudy
1:20 PM 46.4 °F 43.5 °F 35.6 °F 66% 29.89 in 6.2 mi SSW 5.8 mph - N/A   Mostly Cloudy
1:50 PM 48.2 °F - 37.4 °F 66% 29.86 in 6.2 mi SSW 5.8 mph - N/A   Mostly Cloudy
2:00 PM 48 °F - 36 °F 53% 29.88 in 6 mi SSW 5.8 mph - -   Partly Cloudy
2:20 PM 48.2 °F - 37.4 °F 66% 29.86 in 6.2 mi SW 6.9 mph - N/A   Mostly Cloudy
2:50 PM 48.2 °F - 37.4 °F 66% 29.86 in 6.2 mi SSW 6.9 mph - N/A   Mostly Cloudy
3:20 PM 46.4 °F 42.4 °F 37.4 °F 71% 29.86 in 6.2 mi SW 8.1 mph - N/A   Mostly Cloudy
3:50 PM 46.4 °F 42.4 °F 35.6 °F 66% 29.86 in 6.2 mi SW 8.1 mph - N/A   Mostly Cloudy
4:20 PM 46.4 °F 42.4 °F 35.6 °F 66% 29.83 in 6.2 mi WSW 8.1 mph - N/A   Mostly Cloudy
4:50 PM 44.6 °F 42.2 °F 35.6 °F 71% 29.83 in 6.2 mi WSW 4.6 mph - N/A   Mostly Cloudy
5:20 PM 44.6 °F 40.7 °F 35.6 °F 71% 29.83 in 6.2 mi SW 6.9 mph - N/A   Mostly Cloudy
5:50 PM 44.6 °F 40.7 °F 37.4 °F 76% 29.83 in 6.2 mi WSW 6.9 mph - N/A   Mostly Cloudy
6:20 PM 44.6 °F 40.7 °F 35.6 °F 71% 29.83 in 6.2 mi SW 6.9 mph - N/A   Mostly Cloudy
6:50 PM 44.6 °F 41.4 °F 35.6 °F 71% 29.83 in 6.2 mi SW 5.8 mph - N/A   Mostly Cloudy
7:20 PM 44.6 °F 43.1 °F 35.6 °F 71% 29.83 in 6.2 mi WSW 3.5 mph - N/A   Mostly Cloudy
7:50 PM 46.4 °F - 33.8 °F 62% 29.83 in 6.2 mi Variable 2.3 mph - N/A   Mostly Cloudy
8:00 PM 46 °F - 34 °F 52% 29.84 in 6 mi WSW 2.3 mph - -   Partly Cloudy
8:20 PM 46.4 °F 45.2 °F 33.8 °F 62% 29.83 in 6.2 mi WSW 3.5 mph - N/A   Mostly Cloudy
8:50 PM 46.4 °F 45.2 °F 33.8 °F 62% 29.83 in 6.2 mi SW 3.5 mph - N/A   Mostly Cloudy
9:20 PM 46.4 °F 44.3 °F 33.8 °F 62% 29.83 in 6.2 mi WSW 4.6 mph - N/A   Mostly Cloudy
9:50 PM 42.8 °F - 33.8 °F 70% 29.80 in 6.2 mi Variable 1.2 mph - N/A   Mostly Cloudy
10:20 PM 44.6 °F - 33.8 °F 66% 29.80 in 6.2 mi Variable 1.2 mph - N/A   Mostly Cloudy
10:50 PM 42.8 °F - 35.6 °F 76% 29.80 in 6.2 mi WNW 2.3 mph - N/A   Mostly Cloudy
11:20 PM 41.0 °F - 33.8 °F 76% 29.80 in 6.2 mi Calm Calm - N/A   Mostly Cloudy
11:50 PM 42.8 °F - 35.6 °F 76% 29.80 in 6.2 mi SSW 1.2 mph - N/A   Mostly Cloudy